#timestamp,LO_Frequency,Hit,Temp,Hum 
1493913615.6,286047450.1,N,0.0,0.0
1493913635.5,286047448.8,N,0.0,0.0
1493913655.3,286047446.2,N,0.0,0.0
1493913675.1,286047447.3,N,0.0,0.0
1493913695.9,286047443.7,N,0.0,0.0
1493913715.7,286047444.2,N,0.0,0.0
1493913735.5,286047442.1,N,0.0,0.0
1493913755.3,286047442.7,N,0.0,0.0
1493913775.2,286047442.5,N,0.0,0.0
1493913795.0,286047442.8,N,0.0,0.0
1493913795.9,286047442.8,N,0.0,0.0
1493913815.7,286047438.5,N,0.0,0.0
1493913835.6,286047444.7,N,0.0,0.0
1493913855.4,286047444.5,N,0.0,0.0
1493913875.2,286047443.1,N,0.0,0.0
1493913895.1,286047443.7,N,0.0,0.0
1493913896.0,286047443.7,N,0.0,0.0
1493913915.8,286047445.8,N,0.0,0.0
1493913935.6,286047443.5,N,0.0,0.0
1493913955.5,286047439.9,N,0.0,0.0
1493913975.3,286047443.8,N,0.0,0.0
1493913995.1,286047442.1,N,0.0,0.0
1493914015.9,286047439.9,N,0.0,0.0
1493914035.7,286047440.5,N,0.0,0.0
1493914055.5,286047441.0,N,0.0,0.0
1493914075.4,286047440.1,N,0.0,0.0
1493914095.2,286047436.8,N,0.0,0.0
1493914115.0,286047437.4,N,0.0,0.0
1493914115.9,286047437.4,N,0.0,0.0
1493914135.8,286047435.3,N,0.0,0.0
1493914155.6,286047436.8,N,0.0,0.0
1493914175.4,286047432.6,N,0.0,0.0
1493914195.3,286047433.8,N,0.0,0.0
1493914215.1,286047423.9,N,0.0,0.0
1493914216.0,286047423.9,N,0.0,0.0
1493914235.8,286047428.6,N,0.0,0.0
1493914255.7,286047434.5,N,0.0,0.0
1493914275.5,286047441.3,N,0.0,0.0
1493914295.3,286047434.3,N,0.0,0.0
1493914315.1,286047447.2,N,0.0,0.0
1493914335.9,286047448.9,N,0.0,0.0
1493914355.7,286047450.8,N,0.0,0.0
1493914375.5,286047429.0,N,0.0,0.0
1493914395.4,286047429.4,N,0.0,0.0
1493914415.2,286047427.8,N,0.0,0.0
1493914435.0,286047426.1,N,0.0,0.0
1493914435.9,286047426.1,N,0.0,0.0
1493914455.8,286047428.3,N,0.0,0.0
1493914475.6,286047425.3,N,0.0,0.0
1493914495.4,286047425.7,N,0.0,0.0
1493914515.3,286047435.0,N,0.0,0.0
1493914535.1,286047425.9,N,0.0,0.0
1493914555.8,286046829.7,N,0.0,0.0
1493914575.7,286046833.2,N,0.0,0.0
1493914595.5,286047425.5,N,0.0,0.0
1493914615.3,286047427.5,N,0.0,0.0
1493914635.2,286047428.3,N,0.0,0.0
1493914655.9,286047428.4,N,0.0,0.0
1493914675.7,286047426.5,N,0.0,0.0
1493914695.6,286047426.6,N,0.0,0.0
1493914715.4,286047425.6,N,0.0,0.0
1493914735.2,286047424.4,N,0.0,0.0
1493914755.0,286047423.8,N,0.0,0.0
1493914756.0,286047423.8,N,0.0,0.0
1493914775.8,286047416.5,N,0.0,0.0
1493914795.6,286047415.0,N,0.0,0.0
1493914815.4,286047414.8,N,0.0,0.0
1493914835.3,286047415.9,N,0.0,0.0
1493914855.1,286047418.6,N,0.0,0.0
1493914875.8,286047419.9,N,0.0,0.0
1493914895.7,286047418.2,N,0.0,0.0
1493914915.5,286047348.7,N,0.0,0.0
1493914935.3,286047418.5,N,0.0,0.0
1493914955.2,286047417.4,N,0.0,0.0
1493914975.9,286047449.2,N,0.0,0.0
1493914995.7,286047447.7,N,0.0,0.0
1493915015.6,286047449.0,N,0.0,0.0
1493915035.4,286047446.3,N,0.0,0.0
1493915055.2,286047446.3,N,0.0,0.0
1493915075.1,286047447.3,N,0.0,0.0
1493915076.0,286047447.3,N,0.0,0.0
1493915095.8,286047446.8,N,0.0,0.0
1493915115.6,286047448.9,N,0.0,0.0
1493915135.5,286047448.8,N,0.0,0.0
1493915155.3,286047449.2,N,0.0,0.0
1493915175.1,286047448.3,N,0.0,0.0
1493915195.9,286047447.4,N,0.0,0.0
1493915215.7,286047448.5,Y,0.0,0.0
1493915235.5,286046949.3,N,0.0,0.0
1493915255.4,286046978.1,N,0.0,0.0
1493915275.2,286046951.2,N,0.0,0.0
1493915295.0,286046950.9,N,0.0,0.0
1493915295.9,286046950.9,N,0.0,0.0
1493915315.8,286046949.0,N,0.0,0.0
1493915335.6,286046953.1,N,0.0,0.0
1493915355.4,286046954.8,N,0.0,0.0
1493915375.2,286046952.9,N,0.0,0.0
1493915395.1,286046953.0,N,0.0,0.0
1493915396.0,286046953.0,N,0.0,0.0
1493915415.8,286046950.6,N,0.0,0.0
1493915435.6,286046954.7,N,0.0,0.0
1493915455.5,286046953.9,N,0.0,0.0
1493915475.3,286046953.4,N,0.0,0.0
1493915495.1,286046952.0,N,0.0,0.0
1493915515.9,286046953.9,N,0.0,0.0
1493915535.7,286046953.3,N,0.0,0.0
1493915555.5,286046956.3,N,0.0,0.0
1493915575.4,286046954.7,N,0.0,0.0
1493915595.2,286046953.5,N,0.0,0.0
1493915615.0,286046984.3,N,0.0,0.0
1493915615.9,286046984.3,N,0.0,0.0
1493915635.8,286046984.2,N,0.0,0.0
1493915655.6,286046987.8,N,0.0,0.0
1493915675.4,286046990.0,N,0.0,0.0
1493915695.3,286046988.0,N,0.0,0.0
1493915715.1,286046985.8,N,0.0,0.0
1493915716.0,286046985.8,N,0.0,0.0
1493915735.8,286046988.9,N,0.0,0.0
1493915755.7,286046990.4,N,0.0,0.0
1493915775.5,286046989.7,N,0.0,0.0
1493915795.3,286046982.5,N,0.0,0.0
1493915815.2,286046985.9,N,0.0,0.0
1493915835.9,286046988.4,N,0.0,0.0
1493915855.7,286046983.8,N,0.0,0.0
1493915875.6,286046986.3,N,0.0,0.0
1493915895.4,286046989.5,N,0.0,0.0
1493915915.2,286046985.7,N,0.0,0.0
1493915935.0,286046987.4,N,0.0,0.0
1493915936.0,286046987.4,N,0.0,0.0
1493915955.8,286046989.1,N,0.0,0.0
1493915975.6,286046988.9,N,0.0,0.0
1493915995.4,286046994.8,N,0.0,0.0
1493916015.3,286046988.7,N,0.0,0.0
1493916035.1,286046991.0,N,0.0,0.0
1493916055.8,286046990.7,N,0.0,0.0
1493916075.7,286046994.8,N,0.0,0.0
1493916095.5,286046993.3,N,0.0,0.0
1493916115.3,286046994.8,N,0.0,0.0
1493916135.2,286046990.8,N,0.0,0.0
1493916155.9,286046986.0,N,0.0,0.0
1493916175.7,286046992.5,N,0.0,0.0
1493916195.3,286046992.7,N,0.0,0.0
1493916215.1,286046992.6,N,0.0,0.0
1493916235.8,286046996.4,N,0.0,0.0
1493916255.7,286046995.2,N,0.0,0.0
1493916275.5,286046996.2,N,0.0,0.0
1493916295.3,286046993.3,N,0.0,0.0
1493916315.2,286046995.9,N,0.0,0.0
1493916335.9,286046992.3,N,0.0,0.0
1493916355.7,286046994.6,N,0.0,0.0
1493916375.6,286046993.7,N,0.0,0.0
1493916395.4,286046988.9,N,0.0,0.0
1493916415.2,286046997.9,N,0.0,0.0
1493916435.1,286046997.6,N,0.0,0.0
1493916436.0,286046997.6,N,0.0,0.0
1493916455.8,286046998.0,N,0.0,0.0
1493916475.6,286046995.5,N,0.0,0.0
1493916495.4,286046997.9,N,0.0,0.0
1493916515.3,286046999.6,N,0.0,0.0
1493916535.1,286046997.1,N,0.0,0.0
1493916555.8,286046998.8,N,0.0,0.0
1493916575.7,286046999.1,N,0.0,0.0
1493916595.5,286046998.8,N,0.0,0.0
1493916615.3,286046999.1,N,0.0,0.0
1493916635.2,286047001.1,N,0.0,0.0
1493916655.0,286047002.3,N,0.0,0.0
1493916655.9,286047002.3,N,0.0,0.0
1493916675.7,286047001.7,N,0.0,0.0
1493916695.6,286047002.1,N,0.0,0.0
1493916715.4,286047001.6,N,0.0,0.0
1493916735.2,286047000.0,N,0.0,0.0
1493916755.1,286046999.8,N,0.0,0.0
1493916756.0,286046999.8,N,0.0,0.0
1493916775.8,286047002.7,N,0.0,0.0
1493916795.6,286047002.2,N,0.0,0.0
1493916815.5,286047001.9,N,0.0,0.0
1493916835.3,286046998.4,N,0.0,0.0
1493916855.1,286046998.2,N,0.0,0.0
1493916875.9,286047002.7,N,0.0,0.0
1493916895.7,286047002.4,N,0.0,0.0
1493916915.5,286046999.6,N,0.0,0.0
1493916935.4,286046997.8,N,0.0,0.0
1493916955.2,286047000.3,N,0.0,0.0
1493916975.0,286047012.9,N,0.0,0.0
1493916975.9,286047012.9,N,0.0,0.0
1493916995.8,286047002.3,N,0.0,0.0
1493917015.6,286047002.3,N,0.0,0.0
1493917035.4,286047002.6,N,0.0,0.0
1493917055.2,286047002.5,N,0.0,0.0
1493917075.1,286047002.6,N,0.0,0.0
1493917076.0,286047002.6,N,0.0,0.0
1493917095.8,286047001.8,N,0.0,0.0
1493917115.6,286047004.7,N,0.0,0.0
1493917135.5,286047003.4,N,0.0,0.0
1493917155.3,286046998.3,N,0.0,0.0
1493917175.1,286047004.3,N,0.0,0.0
1493917195.9,286047003.1,N,0.0,0.0
